763  
ASUS41 KRLX 202110  
RWRRLX  
WEST VIRGINIA REGIONAL WEATHER ROUNDUP  
NATIONAL WEATHER SERVICE CHARLESTON WV  
500 PM EDT SUN AUG 20 2017  
 
NOTE: "FAIR" INDICATES FEW OR NO CLOUDS BELOW 12,000 FEET WITH NO  
SIGNIFICANT WEATHER AND/OR S TO VISIBILITY
.  
 
WVZ003-202200-  
NORTHERN PANHANDLE OF WEST VIRGINIA  
 
CITY SKY/WX TMP DP RH WIND PRES REMARKS
 
WHEELING SUNNY 83 62 49 W7 30.13S  

 
 
WVZ009-202200-  
NORTHWEST WEST VIRGINIA  
 
CITY SKY/WX TMP DP RH WIND PRES REMARKS
 
PARKERSBURG SUNNY 86 68 54 W3 30.12F  

 
 
WVZ006-202200-  
WESTERN WEST VIRGINIA  
 
CITY SKY/WX TMP DP RH WIND PRES REMARKS
 
HUNTINGTON SUNNY 89 67 47 E5 30.07F  

 
 
WVZ015-202200-  
WEST CENTRAL WEST VIRGINIA  
 
CITY SKY/WX TMP DP RH WIND PRES REMARKS
 
CHARLESTON MOSUNNY 88 63 43 SW3 30.09F  

 
 
WVZ022-031-202200-  
NORTH CENTRAL WEST VIRGINIA  
 
CITY SKY/WX TMP DP RH WIND PRES REMARKS
 
CLARKSBURG SUNNY 86 61 42 CALM 30.12F  
MORGANTOWN MOSUNNY 85 57 38 VRB5 30.14S  

 
 
WVZ025-035-042-045-202200-  
SOUTHERN WEST VIRGINIA  
 
CITY SKY/WX TMP DP RH WIND PRES REMARKS
 
BECKLEY MOSUNNY 86 61 42 N7 30.19S  
LOGAN N/A 84 66 54 CALM 30.14S  
BLUEFIELD SUNNY 82 59 45 VRB3 30.22S  
LEWISBURG MOSUNNY 84 59 43 W6 30.19R  

 
 
WVZ047-202200-  
NORTHERN MOUNTAINS OF WEST VIRGINIA  
 
CITY SKY/WX TMP DP RH WIND PRES REMARKS
 
ELKINS SUNNY 83 62 49 NW8 30.17F  

 
 
WVZ052-202200-  
EASTERN PANHANDLE OF WEST VIRGINIA  
 
CITY SKY/WX TMP DP RH WIND PRES REMARKS
 
MARTINSBURG SUNNY 84 61 45 S3 30.11F  
PETERSBURG SUNNY 89 70 52 NE3 30.11S  

 
 
 
CLICK HERE TO GO TO PREVIOUS BULLETINS.

The Nexlab WV Page
The Nexlab OH Page
The Nexlab KY Page
The Nexlab VA Page Main Text Page